DISKSAT D

Last updated on Fri Dec 19 2025 00:02:10 GMT+0000 (Coordinated Universal Time)

1 67222U 25305D 25352.32421190 .00004130 00000+0 29211-3 0 9998 2 67222 45.0527 320.6724 0008825 241.9782 118.0201 15.06357331 12
UTC large
Height (km)
Speed (km/s)
/
Latitude / Longitude
Inclination (degrees)
Orbital Period (minutes)
Azimuth
Elevation
Range (km)
Doppler Factor

Next 0 passes for location: London (51.5072 / 0.1276)

Sorry there are no passes over London.